User: anonymous   Login
Location: Arlington
(40.6323°N, 74.1651°W)
Time: 23:03:01
(UTC+00:00)
Language:

GENESIS II - Orbit

View from above orbital plane
View from above orbital plane
View from above satellite
View from above satellite

Ground track
Ground track

The orbit data is extracted from the following two-line orbital elements,

1 31789U 07028A   20028.50581221  .00000053  00000-0  13176-4 0  9991
2 31789  64.5039  83.8467 0050678 259.4621 100.0790 15.17139649693784
Epoch (UTC): 28 January 2020 12:08:22
Eccentricity: 0.0050678
inclination: 64.5039°
perigee height: 479 km
apogee height: 549 km
right ascension of ascending node: 83.8467°
argument of perigee: 259.4621°
revolutions per day: 15.17139649
mean anomaly at epoch: 100.0790°
orbit number at epoch: 69378

The dashed part of the orbit path shows where the satellite is in the earth's shadow,  

DLR